This is the latest recevied weather packets stored in our database for station/object CE4TQY-10. If no packets are shown the sender has not sent any weather packets the latest 10 day(s).
| Time | Temp. | Humidity | Pressure | Rain* | Wind** | Luminosity | Snow |
|---|---|---|---|---|---|---|---|
| 1777862950 | 16.67° C | 42% | 1020.8 hPa | - | - | - | - |
| 1777862050 | 16.67° C | 40% | 1020.9 hPa | - | - | - | - |
| 1777861149 | 17.22° C | 40% | 1020.7 hPa | - | - | - | - |
| 1777860248 | 17.22° C | 37% | 1020.7 hPa | - | - | - | - |
| 1777859347 | 17.78° C | 36% | 1020.6 hPa | - | - | - | - |
| 1777858446 | 17.78° C | 37% | 1020.7 hPa | - | - | - | - |
| 1777857545 | 17.78° C | 37% | 1020.6 hPa | - | - | - | - |
| 1777856675 | 17.78° C | 38% | 1020.5 hPa | - | - | - | - |
| 1777856644 | 17.78° C | 38% | 1020.5 hPa | - | - | - | - |
| 1777855743 | 17.78° C | 39% | 1020.5 hPa | - | - | - | - |
| 1777854842 | 17.78° C | 38% | 1020.5 hPa | - | - | - | - |
| 1777853941 | 18.33° C | 37% | 1020.4 hPa | - | - | - | - |
| 1777853040 | 18.89° C | 35% | 1020.4 hPa | - | - | - | - |
| 1777852139 | 18.89° C | 35% | 1020.4 hPa | - | - | - | - |
| 1777851238 | 19.44° C | 35% | 1020.1 hPa | - | - | - | - |
| 1777850338 | 19.44° C | 34% | 1020 hPa | - | - | - | - |
| 1777849436 | 19.44° C | 34% | 1020 hPa | - | - | - | - |
| 1777848535 | 19.44° C | 34% | 1020 hPa | - | - | - | - |
| 1777847634 | 19.44° C | 33% | 1019.9 hPa | - | - | - | - |
| 1777846733 | 20° C | 32% | 1020 hPa | - | - | - | - |
| 1777845832 | 20.56° C | 26% | 1020 hPa | - | - | - | - |
| 1777844931 | 21.11° C | 26% | 1019.8 hPa | - | - | - | - |
| 1777844030 | 21.67° C | 24% | 1019.6 hPa | - | - | - | - |
| 1777843130 | 22.22° C | 27% | 1019.5 hPa | - | - | - | - |
| 1777842229 | 22.22° C | 30% | 1019.3 hPa | - | - | - | - |
* Rain since midnight (hover to see other rain measurements)
** Current wind speed in m/s (hover to see current wind gust speed)